SCP
0 0 0 0 0 0 0 0 0 0 0 0 0 0 0 0 0 0 -0 -0 -0 -0 -0 -0 -0 -0 -0 -0 -0 -0 -0 -0 -0 0 0 0 0 0
-0 -0 0 0 0 0 0 0 0 0 0 0 0 0 0 0 0 -0 0 0 -0 -0 -0 -0 -0 -0 -0 -0 -0 -0 -0 -0 -0 0 0 0 0 0
0 0 0 0 0 0 0 0 0 0 0 0 0 0 0 0 0 0 0 0 0 -0 -0 -0 -0 -0 -0 -0 -0 -0 -0 -0 -0 0 0 0 0 0
0 0 0 0 0 0 0 0 0 0 0 0 0 0 0 0 0 0 0 0 0 -0 -0 -0 0 -0 -0 -0 -0 -0 -0 -0 0 0 0 0 0 0
0 0 0 0 0 0 0 0 0 0 0 0 0 0 0 0 0 0 0 0 0 -0 -0 -0 0 0 -0 -0 -0 -0 -0 0 0 0 0 0 0 0
0 0 0 0 0 0 0 0 -0 0 0 0 0 0 0 0 0 0 0 0 0 0 0 0 0 0 0 -0 -0 0 0 0 0 0 0 0 0 0
-0 0 0 0 0 0 0 0 -0 -0 0 0 0 0 0 0 0 0 0 0 0 0 0 0 0 0 0 0 0 0 0 0 0 0 0 0 0 0
0 -0 0 0 0 0 0 0 -0 -0 0 0 0 0 0 0 0 0 0 0 0 0 0 0 0 0 0 0 0 0 0 0 0 0 0 0 0 0
-0 0 0 0 0 0 0 -0 0 0 -0 0 0 0 0 0 0 0 0 0 0 0 0 0 0 0 0 0 0 0 0 0 0 0 0 0 0 0
0 0 0 0 0 0 -0 -0 0 0 0 0 0 0 0 0 0 0 0 0 0 0 0 0 0 0 0 0 0 0 0 0 0 0 0 0 0 0
0 0 0 0 0 0 0 0 0 0 0 0 0 -0 -0 -0 -0 0 0 0 0 0 0 0 0 0 0 0 0 0 0 0 0 0 0 0 0 0
0 0 0 0 -0 -0 -0 0 0 0 -0 -0 0 0 -0 -0 -0 0 0 0 0 0 0 0 0 0 0 0 0 0 0 0 0 0 0 0 0 0
0 0 0 -0 -0 -0 -0 -0 -0 -0 -0 -0 0 0 0 0 0 0 0 0 0 0 0 0 0 0 0 0 0 0 0 0 0 0 0 0 0 0
0 0 0 0 0 -0 -0 0 -0 -0 0 -0 0 0 0 0 0 0 0 0 0 0 0 0 0 0 0 0 0 0 0 0 0 0 0 0 0 0
0 0 -0 0 0 0 0 -0 0 0 0 0 0 0 0 0 0 0 0 0 0 0 0 0 0 0 0 0 0 0 0 0 0 0 0 0 0 0
0 0 0 0 0 0 0 0 0 0 0 0 0 0 0 0 0 0 0 0 0 0 0 0 0 0 0 0 0 0 0 0 0 0 0 0 0 0
0 0 0 0 0 0 0 0 0 0 0 0 0 0 0 0 0 0 0 0 0 0 0 0 0 0 0 0 0 0 0 0 0 0 0 0 0 0
0 0 0 0 0 0 0 0 0 0 0 0 0 0 0 0 0 0 0 0 0 0 0 0 0 0 0 0 0 0 0 0 0 0 0 0 0 0
0 0 0 0 0 0 0 0 0 0 0 0 0 0 0 0 0 0 0 0 0 0 0 0 0 0 0 0 0 0 0 0 0 0 0 0 0 0
0 0 0 0 0 0 0 0 0 0 0 0 0 0 0 0 0 0 0 0 0 0 0 0 0 0 0 0 0 0 0 0 0 0 0 0 0 0
0 0 0 0 0 0 0 0 0 0 0 0 0 0 0 0 0 0 0 0 0 0 0 0 0 0 0 0 0 0 0 0 0 0 0 0 0 0
0 0 0 0 0 0 0 0 0 0 0 0 0 0 0 0 0 0 0 0 0 0 0 0 0 0 0 0 0 0 0 0 0 0 0 0 0 0
0 0 0 0 0 0 0 0 0 0 0 0 0 0 0 0 0 0 0 0 0 0 0 0 0 0 0 0 0 0 0 0 0 0 0 0 0 0
Wind_Speed_500mb
22 21 28 38 52 51 48 46 45 53 58 72 74 71 62 58 51 44 39 28 20 17 16 13 11 12 14 14 15 25 24 24 23 35 35 36 35 35
14 20 31 40 52 46 45 33 32 55 66 67 73 64 54 48 40 37 35 28 19 15 14 11 9 11 10 9 14 18 14 20 30 32 27 28 32 28
24 23 37 34 32 39 24 34 35 62 83 68 68 61 53 48 41 36 29 24 21 17 13 9 6 12 9 10 10 10 12 25 29 25 22 29 26 28
18 19 17 26 36 39 37 29 48 61 69 77 66 60 54 46 42 35 31 23 21 16 9 4 5 9 6 7 7 9 17 23 24 21 26 24 25 29
25 23 21 28 36 41 38 41 49 48 52 56 66 59 51 42 38 31 26 21 18 13 6 2 9 8 2 7 8 17 21 24 21 21 24 21 25 30
23 29 28 36 40 41 34 27 27 39 48 63 63 59 50 46 37 32 29 24 19 14 9 3 12 4 4 7 14 19 21 22 19 20 20 22 26 29
21 32 37 37 39 35 35 27 28 37 49 63 63 59 53 49 43 38 31 29 22 15 7 4 5 2 6 10 17 18 19 18 17 17 18 22 25 28
22 31 39 41 42 42 30 17 23 23 53 63 63 58 53 52 48 42 37 35 28 18 9 1 4 3 6 14 17 16 16 16 15 15 16 19 23 26
27 35 40 43 44 45 38 23 22 26 41 44 54 51 51 48 45 47 43 35 24 16 11 5 9 6 9 18 16 15 14 13 11 11 14 18 21 25
27 31 39 39 42 43 39 32 28 28 31 40 52 48 46 46 48 43 43 38 24 21 16 16 15 12 12 17 19 15 12 9 7 8 12 16 19 23
36 38 39 39 38 44 41 35 34 33 31 35 37 49 49 50 49 47 46 40 31 26 21 22 24 21 19 18 15 12 11 9 5 5 10 14 17 22
39 40 38 38 38 41 41 43 38 34 33 35 41 45 44 47 45 46 44 37 33 30 31 31 31 27 20 24 21 16 11 9 5 4 8 12 15 20
43 50 48 42 47 48 47 44 36 34 35 38 40 44 43 44 44 47 47 41 32 33 24 23 30 32 28 20 29 22 17 13 7 3 3 8 13 18
41 42 41 41 42 46 45 43 38 37 38 36 39 41 45 46 47 48 51 47 45 38 31 28 25 26 35 28 24 29 23 18 11 6 3 7 13 14
33 34 36 39 42 45 45 43 45 47 43 41 41 43 43 46 48 52 55 52 50 47 39 31 30 27 28 35 25 26 26 21 16 12 7 4 9 12
41 42 42 44 49 51 52 50 50 51 49 47 47 45 45 45 51 55 58 58 55 55 50 43 39 37 34 36 34 29 27 20 23 17 9 6 8 11
44 45 50 52 52 51 52 50 49 54 55 52 49 48 51 51 52 56 60 62 63 61 56 53 50 45 39 40 44 37 34 32 25 21 14 10 9 9
44 53 55 56 56 57 55 55 51 54 58 56 54 55 56 57 56 59 62 66 67 64 60 57 55 50 46 47 48 46 42 39 34 27 21 15 13 11
40 35 50 59 63 65 64 60 64 58 60 56 61 62 63 64 62 62 64 67 70 66 64 61 59 53 52 56 51 52 46 41 38 33 26 21 17 15
54 47 42 46 54 58 62 64 58 66 62 65 67 70 70 69 69 68 67 68 68 67 66 65 63 57 54 54 54 51 50 48 44 36 31 27 23 21
48 48 43 43 48 53 57 64 68 71 72 72 72 74 76 80 79 76 73 68 66 66 67 64 58 54 58 56 58 57 48 50 48 43 36 33 30 27
31 37 42 44 42 44 53 60 64 70 75 77 77 75 78 82 84 83 75 69 67 65 65 65 60 60 62 63 64 60 52 50 52 49 45 42 35 23
45 44 45 48 53 54 48 52 58 62 67 69 76 76 75 80 84 85 80 70 66 69 68 67 63 64 67 68 69 65 58 53 55 57 52 46 40 35
Wind_Direction_500mb
117 153 157 150 154 152 148 144 145 125 118 130 129 134 141 144 145 142 139 138 138 141 116 106 74 47 32 38 68 99 96 95 85 81 77 74 69 67
127 140 153 159 164 163 158 173 164 159 137 138 139 143 147 147 146 144 144 150 138 130 117 101 75 34 33 88 102 107 97 91 85 82 74 69 64 51
111 147 170 175 177 172 170 175 176 161 148 141 145 149 156 158 157 161 155 151 142 141 129 110 53 16 77 107 93 99 89 93 91 77 64 59 46 45
160 149 142 178 178 176 166 169 166 160 164 153 152 156 158 162 163 166 162 161 153 143 141 133 22 33 88 81 79 90 107 94 82 71 61 51 42 42
188 201 186 180 182 175 165 164 165 172 175 174 165 166 165 169 172 169 168 177 168 155 156 181 2 28 78 74 86 123 107 93 82 68 60 46 42 38
190 193 189 185 183 175 174 170 181 193 191 183 175 172 175 176 180 181 179 178 177 164 154 20 332 333 78 84 134 120 107 95 81 67 54 43 40 36
182 181 180 189 188 186 174 174 181 200 197 185 182 184 187 186 188 194 194 184 176 171 171 54 3 72 113 145 144 130 112 99 81 62 47 41 38 36
188 179 175 180 187 190 196 197 215 203 204 195 194 197 200 200 202 202 200 193 175 184 177 309 160 190 163 159 152 138 118 101 78 58 45 39 35 34
205 190 179 180 190 196 206 208 215 226 234 233 220 213 214 215 215 206 205 205 207 197 188 237 206 208 181 163 158 140 124 104 81 56 45 37 32 33
208 202 190 188 197 205 216 226 219 218 224 226 220 226 228 226 218 218 208 203 204 197 229 247 231 222 196 185 170 159 138 115 86 54 39 30 30 31
208 200 201 200 200 211 217 223 207 211 216 220 224 231 238 235 227 219 211 210 215 223 239 244 232 221 206 190 181 176 161 142 123 63 36 24 26 27
208 201 202 205 213 214 218 218 212 215 228 231 228 232 231 232 234 231 231 227 236 236 242 238 232 220 215 209 196 190 181 178 155 81 29 17 25 24
216 216 218 213 214 213 216 212 222 228 241 245 238 231 226 221 220 218 221 227 233 231 247 246 240 225 218 220 210 204 203 200 181 125 13 23 22 19
224 216 215 216 209 208 216 216 230 240 247 244 232 229 224 219 215 215 217 221 224 231 241 250 251 243 231 228 216 214 212 208 198 206 266 4 11 12
225 219 211 210 210 215 221 231 233 235 240 237 233 231 228 221 216 215 216 219 224 229 235 238 242 249 237 229 238 223 219 215 213 219 238 332 350 354
230 227 223 220 221 224 229 232 237 238 236 238 235 231 226 220 215 217 219 220 224 229 232 234 239 236 240 230 227 222 223 217 219 222 228 271 320 336
233 235 233 232 234 234 237 241 243 240 232 231 231 229 228 224 221 220 220 224 227 229 232 232 236 237 236 227 220 223 223 225 228 222 228 249 277 307
241 235 237 238 238 240 243 247 245 241 237 235 231 228 230 231 226 224 224 225 228 230 233 235 238 239 236 232 226 218 221 220 224 226 230 241 262 287
276 274 248 242 242 246 249 248 245 244 240 240 237 236 231 231 232 229 229 229 230 231 235 239 240 239 237 236 230 222 222 224 226 227 230 241 253 270
267 267 269 265 251 247 247 244 246 249 244 245 240 235 233 234 233 233 233 233 234 235 236 238 240 239 238 239 233 230 227 224 226 227 231 239 251 261
267 264 268 266 262 258 256 254 251 250 251 251 250 244 239 236 233 232 235 236 238 237 238 241 243 239 236 233 228 229 230 229 226 225 231 238 246 257
253 277 280 277 276 270 264 259 255 255 252 250 252 252 249 245 239 236 235 238 240 240 241 241 240 237 235 230 227 227 227 225 225 226 229 233 235 241
261 261 269 274 273 274 275 267 262 259 256 253 251 252 252 246 243 238 235 236 239 241 240 240 237 234 234 232 227 226 226 227 227 226 229 232 237 244
Wind_Speed_850mb
22 21 28 38 52 51 48 46 45 53 58 72 74 71 62 58 51 44 39 28 20 17 16 13 11 12 14 14 15 25 24 24 23 35 35 36 35 35
14 20 31 40 52 46 45 33 32 55 66 67 73 64 54 48 40 37 35 28 19 15 14 11 9 11 10 9 14 18 14 20 30 32 27 28 32 28
24 23 37 34 32 39 24 34 35 62 83 68 68 61 53 48 41 36 29 24 21 17 13 9 6 12 9 10 10 10 12 25 29 25 22 29 26 28
18 19 17 26 36 39 37 29 48 61 69 77 66 60 54 46 42 35 31 23 21 16 9 4 5 9 6 7 7 9 17 23 24 21 26 24 25 29
25 23 21 28 36 41 38 41 49 48 52 56 66 59 51 42 38 31 26 21 18 13 6 2 9 8 2 7 8 17 21 24 21 21 24 21 25 30
23 29 28 36 40 41 34 27 27 39 48 63 63 59 50 46 37 32 29 24 19 14 9 3 12 4 4 7 14 19 21 22 19 20 20 22 26 29
21 32 37 37 39 35 35 27 28 37 49 63 63 59 53 49 43 38 31 29 22 15 7 4 5 2 6 10 17 18 19 18 17 17 18 22 25 28
22 31 39 41 42 42 30 17 23 23 53 63 63 58 53 52 48 42 37 35 28 18 9 1 4 3 6 14 17 16 16 16 15 15 16 19 23 26
27 35 40 43 44 45 38 23 22 26 41 44 54 51 51 48 45 47 43 35 24 16 11 5 9 6 9 18 16 15 14 13 11 11 14 18 21 25
27 31 39 39 42 43 39 32 28 28 31 40 52 48 46 46 48 43 43 38 24 21 16 16 15 12 12 17 19 15 12 9 7 8 12 16 19 23
36 38 39 39 38 44 41 35 34 33 31 35 37 49 49 50 49 47 46 40 31 26 21 22 24 21 19 18 15 12 11 9 5 5 10 14 17 22
39 40 38 38 38 41 41 43 38 34 33 35 41 45 44 47 45 46 44 37 33 30 31 31 31 27 20 24 21 16 11 9 5 4 8 12 15 20
43 50 48 42 47 48 47 44 36 34 35 38 40 44 43 44 44 47 47 41 32 33 24 23 30 32 28 20 29 22 17 13 7 3 3 8 13 18
41 42 41 41 42 46 45 43 38 37 38 36 39 41 45 46 47 48 51 47 45 38 31 28 25 26 35 28 24 29 23 18 11 6 3 7 13 14
33 34 36 39 42 45 45 43 45 47 43 41 41 43 43 46 48 52 55 52 50 47 39 31 30 27 28 35 25 26 26 21 16 12 7 4 9 12
41 42 42 44 49 51 52 50 50 51 49 47 47 45 45 45 51 55 58 58 55 55 50 43 39 37 34 36 34 29 27 20 23 17 9 6 8 11
44 45 50 52 52 51 52 50 49 54 55 52 49 48 51 51 52 56 60 62 63 61 56 53 50 45 39 40 44 37 34 32 25 21 14 10 9 9
44 53 55 56 56 57 55 55 51 54 58 56 54 55 56 57 56 59 62 66 67 64 60 57 55 50 46 47 48 46 42 39 34 27 21 15 13 11
40 35 50 59 63 65 64 60 64 58 60 56 61 62 63 64 62 62 64 67 70 66 64 61 59 53 52 56 51 52 46 41 38 33 26 21 17 15
54 47 42 46 54 58 62 64 58 66 62 65 67 70 70 69 69 68 67 68 68 67 66 65 63 57 54 54 54 51 50 48 44 36 31 27 23 21
48 48 43 43 48 53 57 64 68 71 72 72 72 74 76 80 79 76 73 68 66 66 67 64 58 54 58 56 58 57 48 50 48 43 36 33 30 27
31 37 42 44 42 44 53 60 64 70 75 77 77 75 78 82 84 83 75 69 67 65 65 65 60 60 62 63 64 60 52 50 52 49 45 42 35 23
45 44 45 48 53 54 48 52 58 62 67 69 76 76 75 80 84 85 80 70 66 69 68 67 63 64 67 68 69 65 58 53 55 57 52 46 40 35
Wind_Direction_850mb
117 153 157 150 154 152 148 144 145 125 118 130 129 134 141 144 145 142 139 138 138 141 116 106 74 47 32 38 68 99 96 95 85 81 77 74 69 67
127 140 153 159 164 163 158 173 164 159 137 138 139 143 147 147 146 144 144 150 138 130 117 101 75 34 33 88 102 107 97 91 85 82 74 69 64 51
111 147 170 175 177 172 170 175 176 161 148 141 145 149 156 158 157 161 155 151 142 141 129 110 53 16 77 107 93 99 89 93 91 77 64 59 46 45
160 149 142 178 178 176 166 169 166 160 164 153 152 156 158 162 163 166 162 161 153 143 141 133 22 33 88 81 79 90 107 94 82 71 61 51 42 42
188 201 186 180 182 175 165 164 165 172 175 174 165 166 165 169 172 169 168 177 168 155 156 181 2 28 78 74 86 123 107 93 82 68 60 46 42 38
190 193 189 185 183 175 174 170 181 193 191 183 175 172 175 176 180 181 179 178 177 164 154 20 332 333 78 84 134 120 107 95 81 67 54 43 40 36
182 181 180 189 188 186 174 174 181 200 197 185 182 184 187 186 188 194 194 184 176 171 171 54 3 72 113 145 144 130 112 99 81 62 47 41 38 36
188 179 175 180 187 190 196 197 215 203 204 195 194 197 200 200 202 202 200 193 175 184 177 309 160 190 163 159 152 138 118 101 78 58 45 39 35 34
205 190 179 180 190 196 206 208 215 226 234 233 220 213 214 215 215 206 205 205 207 197 188 237 206 208 181 163 158 140 124 104 81 56 45 37 32 33
208 202 190 188 197 205 216 226 219 218 224 226 220 226 228 226 218 218 208 203 204 197 229 247 231 222 196 185 170 159 138 115 86 54 39 30 30 31
208 200 201 200 200 211 217 223 207 211 216 220 224 231 238 235 227 219 211 210 215 223 239 244 232 221 206 190 181 176 161 142 123 63 36 24 26 27
208 201 202 205 213 214 218 218 212 215 228 231 228 232 231 232 234 231 231 227 236 236 242 238 232 220 215 209 196 190 181 178 155 81 29 17 25 24
216 216 218 213 214 213 216 212 222 228 241 245 238 231 226 221 220 218 221 227 233 231 247 246 240 225 218 220 210 204 203 200 181 125 13 23 22 19
224 216 215 216 209 208 216 216 230 240 247 244 232 229 224 219 215 215 217 221 224 231 241 250 251 243 231 228 216 214 212 208 198 206 266 4 11 12
225 219 211 210 210 215 221 231 233 235 240 237 233 231 228 221 216 215 216 219 224 229 235 238 242 249 237 229 238 223 219 215 213 219 238 332 350 354
230 227 223 220 221 224 229 232 237 238 236 238 235 231 226 220 215 217 219 220 224 229 232 234 239 236 240 230 227 222 223 217 219 222 228 271 320 336
233 235 233 232 234 234 237 241 243 240 232 231 231 229 228 224 221 220 220 224 227 229 232 232 236 237 236 227 220 223 223 225 228 222 228 249 277 307
241 235 237 238 238 240 243 247 245 241 237 235 231 228 230 231 226 224 224 225 228 230 233 235 238 239 236 232 226 218 221 220 224 226 230 241 262 287
276 274 248 242 242 246 249 248 245 244 240 240 237 236 231 231 232 229 229 229 230 231 235 239 240 239 237 236 230 222 222 224 226 227 230 241 253 270
267 267 269 265 251 247 247 244 246 249 244 245 240 235 233 234 233 233 233 233 234 235 236 238 240 239 238 239 233 230 227 224 226 227 231 239 251 261
267 264 268 266 262 258 256 254 251 250 251 251 250 244 239 236 233 232 235 236 238 237 238 241 243 239 236 233 228 229 230 229 226 225 231 238 246 257
253 277 280 277 276 270 264 259 255 255 252 250 252 252 249 245 239 236 235 238 240 240 241 241 240 237 235 230 227 227 227 225 225 226 229 233 235 241
261 261 269 274 273 274 275 267 262 259 256 253 251 252 252 246 243 238 235 236 239 241 240 240 237 234 234 232 227 226 226 227 227 226 229 232 237 244